Content
SEND FEEDBACK

Daily
Averages
Monthly
Summary
Mexico

COZUMEL, QUINTANA ROO


Home > North America > Mexico > Quintana Roo
Elevation: 4 meters     Latitude: 20 31N     Longitude: 086 56W

WEATHER
 
SELECT A DAY
Number of Records: 128,079;   Date Range: 1/1/95 - 11/26/14
 
SHARE

PRINT THIS DATA

[ ← Previous Day ]
WEATHER ALMANAC - 18 AUGUST, 2014
[ Next Day → ]
[ °F ]   °C
Weather ElementAverageHighLow
Temperature27.5 °C33 °C (1:47 pm)23 °C (1:57 am)
Dewpoint23.7 °C25 °C (7:43 am)22 °C (3:48 am)
Humidity81.2 %100 % (12:44 am)55 % (1:47 pm)
Barometer1014.9 hPa1016.9 hPa (10:40 am)1012.9 hPa (6:44 pm)
Wind Speed12.1 km/h24.1 km/h (12:46 pm)
Weather ElementAverage
Visibility12.1 km
Wind DirectionESE (102.2 °)

Weather ElementTotal
Precipitation---
Cooling Degree Days9.7 (Base 18.3)
Growing Degree Days18 (Base 10)
Averaged from 23 records on 18 August, 2014
WEATHER CONDITIONS BREAKOUT
WIND DIRECTION BREAKOUT
WEATHER BY HOUR - 18 AUGUST, 2014
[ °F ]   °C
Local TimeTemperatureDewpointHumidityBarometerVisibilityWind DirectionWind SpeedGust SpeedPrecipitationEventsConditions
1:07 AM26 °C25 °C94 %1015.2 hPa11.3 kmEast (80°)7.4 km/hPartly Cloudy
2:40 AM24 °C24 °C100 %1015.2 hPa11.3 kmCalmPartly Cloudy
3:53 AM24 °C24 °C100 %1015.6 hPa11.3 kmCalmPartly Cloudy
5:17 AM24 °C23 °C94 %1014.9 hPa11.3 kmEast (90°)5.6 km/hPartly Cloudy
5:58 AM23 °C23 °C100 %1014.9 hPa11.3 kmCalmPartly Cloudy
6:50 AM23 °C23 °C100 %1014.2 hPa11.3 kmEast (100°)9.3 km/hPartly Cloudy
7:45 AM26 °C25 °C94 %1015.6 hPa12.9 kmESE (110°)13 km/hScattered Clouds
8:49 AM26 °C24 °C89 %1015.9 hPa12.9 kmSE (130°)13 km/hScattered Clouds
9:41 AM30 °C25 °C74 %1016.9 hPa12.9 kmESE (120°)22.2 km/hScattered Clouds
10:48 AM31 °C24 °C66 %1015.6 hPa12.9 kmSE (130°)22.2 km/hScattered Clouds
11:40 AM31 °C23 °C62 %1015.2 hPa12.9 kmSSE (160°)14.8 km/hScattered Clouds
12:42 PM32 °C23 °C59 %1014.9 hPa12.9 kmSE (140°)22.2 km/hScattered Clouds
1:47 PM33 °C23 °C55 %1014.2 hPa12.9 kmSE (130°)24.1 km/hScattered Clouds
2:48 PM32 °C22 °C55 %1013.9 hPa12.9 kmSE (130°)22.2 km/hScattered Clouds
3:48 PM32 °C23 °C59 %1014.9 hPa12.9 kmSSE (160°)13 km/hScattered Clouds
4:51 PM30 °C23 °C66 %1013.9 hPa12.9 kmSE (140°)20.4 km/hScattered Clouds
5:54 PM30 °C23 °C66 %1013.2 hPa12.9 kmESE (110°)16.7 km/hScattered Clouds
6:44 PM28 °C24 °C79 %1012.9 hPa12.9 kmSE (130°)7.4 km/hScattered Clouds
7:55 PM26 °C24 °C89 %1013.2 hPa11.3 kmEast (100°)9.3 km/hScattered Clouds
8:41 PM26 °C24 °C89 %1014.9 hPa11.3 kmEast (100°)7.4 km/hPartly Cloudy
9:44 PM26 °C24 °C89 %1016.6 hPa11.3 kmEast (100°)9.3 km/hScattered Clouds
10:40 PM25 °C24 °C94 %1015.2 hPa11.3 kmEast (100°)7.4 km/hScattered Clouds
11:42 PM25 °C24 °C94 %1015.6 hPa11.3 kmEast (90°)11.1 km/hScattered Clouds
Hourly data recorded from MMCZ, located 0 kilometers away from Cozumel, Quintana Roo







STORIES FROM OUR PARTNERS